Home   Weather   Napa   Past weeks

Flag for USA Past Weather in Napa, California, USA — Yesterday and Last 2 Weeks

Now
54 °F

Sunny.


Feels Like: 53 °F
Forecast: 48 / 70 °F
Wind: 5 mph from Northwest

Location: Napa County Airport

Current Time: Apr 23, 2017 at 9:10:08 am

Latest Report: Apr 23, 2017 at 7:54 am


Visibility: 10 mi

Pressure: 29.96 "Hg

Humidity: 74%

Dew Point: 46 °F

Location of NapaLocation

Past Weather in Napa — Graph

°F

Napa Temperature Yesterday

Maximum temperature yesterday: 68 °F (at 12:54 pm)
Minimum temperature yesterday: 45 °F (at 4:54 am)
Average temperature yesterday: 57 °F

High & Low Weather Summary for the Past Weeks

 TemperatureHumidityPressure
High76 °F (Apr 21, 3:54 pm)93% (Apr 9, 2:54 am)30.30 "Hg (Apr 9, 2:54 am)
Low39 °F (Apr 9, 4:39 am)36% (Apr 9, 2:54 pm)29.85 "Hg (Apr 12, 11:54 pm)
Average56 °F77%30.06 "Hg
* Reported Apr 8 7:54 am — Apr 23 7:54 am, Napa, Weather by CustomWeather, © 2017

Note: Actual official high and low records may vary slightly from our data, if they occured in-between our weather recording intervals... More about our weather records

Advertising

Napa Weather History for the Previous 24 Hours

Scroll right to see more
 ConditionsComfort  
Time TempWeatherWind HumidityBarometerVisibility
7:54 am
Sun, Apr 23
54 °FSunny.5 mph74%29.96 "Hg10 mi
6:54 am52 °FSunny.9 mph80%29.95 "Hg10 mi
5:54 am52 °FClear.8 mph77%29.94 "Hg10 mi
4:54 am53 °FClear.10 mph74%29.93 "Hg10 mi
3:54 am54 °FClear.9 mph74%29.93 "Hg10 mi
2:54 am54 °FClear.8 mph74%29.93 "Hg10 mi
1:54 am53 °FClear.14 mph80%29.93 "Hg10 mi
12:54 am54 °FClear.13 mph80%29.95 "Hg10 mi
11:54 pm
Sat, Apr 22
54 °FClear.12 mph80%29.95 "Hg10 mi
10:54 pm55 °FClear.18 mph80%29.96 "Hg10 mi
9:54 pm56 °FClear.18 mph77%29.96 "Hg10 mi
8:54 pm57 °FClear.7 mph72%29.97 "Hg10 mi
7:54 pm59 °FClear.13 mph67%29.95 "Hg10 mi
6:54 pm64 °FSunny.9 mph61%29.94 "Hg10 mi
5:54 pm63 °FSunny.14 mph68%29.95 "Hg10 mi
4:54 pm64 °FOvercast.16 mph68%29.95 "Hg10 mi
3:54 pm66 °FSunny.10 mph68%29.96 "Hg10 mi
2:54 pm67 °FPassing clouds.15 mph66%29.99 "Hg10 mi
1:54 pm68 °FSunny.14 mph63%29.98 "Hg10 mi
12:54 pm68 °FSunny.13 mph61%29.99 "Hg10 mi
10:54 am62 °FOvercast.8 mph60%30.01 "Hg10 mi
9:54 am59 °FScattered clouds.8 mph62%30.01 "Hg10 mi
Weather by CustomWeather, © 2017

See weather overviewHow to use our weather pages